Location: Prague
(50.0830°N, 14.4670°E)
Time: 00:24:33
(UTC+01:00)

HuskySat-1 - Pass Details

Date: 05 December 2021
Orbit: 439 x 453 km, 51.6° (Epoch: 25 January)

Event Time Altitude Azimuth Distance (km) Brightness Sun altitude
Rises 18:58:35 0° 261° (W) 2,473 ? -27.4°
Reaches altitude 10° 19:00:44 10° 263° (W) 1,598 ? -27.8°
Enters shadow 19:02:25 26° 267° (W) 940 ? -28.0°
